Theta_e
316 320 322 324 323 323 325 326 327 328 327 324 323 323 321 321 320 319 319 319 318 318 320 322 320 318 318 317 314 311 310 310 310 312 315 308 304 305 304 305 304 304 305 304 305 305 305 305 305 305 305 306 308 313 319 325 329 330 329 331 334 334 334 331 329 329 328 327 329 329 329 330 331 330 331 331 330 330 329 331 333 334 333 334 331 328 327 326 324 319 316 316 315 313 313 312 310
317 321 323 325 323 324 326 325 326 327 325 322 321 320 320 318 317 317 316 316 317 320 321 322 321 318 317 315 313 312 310 308 306 306 307 304 304 304 304 304 304 305 304 305 304 304 305 305 305 305 304 304 305 306 310 315 323 329 329 329 332 334 334 333 332 331 330 328 328 329 329 329 331 331 332 332 331 331 330 330 333 334 333 334 333 331 329 327 326 321 317 316 316 315 314 312 311
319 323 324 324 324 324 326 325 325 325 323 322 319 317 317 316 316 315 314 314 316 321 322 323 321 318 318 316 313 312 310 308 305 304 304 304 303 304 304 304 304 305 304 305 304 304 304 304 304 305 304 304 304 304 305 308 313 322 328 328 329 333 334 334 334 333 332 330 329 328 328 329 331 332 333 333 333 332 332 332 333 333 333 334 333 333 331 329 328 323 319 318 317 316 315 313 312
321 323 324 324 325 324 326 327 324 322 321 321 318 315 314 314 315 314 314 313 313 317 320 323 321 317 317 314 313 311 307 307 305 303 303 303 303 304 304 304 305 304 304 304 304 304 304 305 304 304 304 304 304 304 304 305 307 311 321 327 329 330 331 333 334 334 333 332 330 329 328 329 330 331 332 333 333 333 333 332 332 332 333 334 333 333 333 331 328 324 321 319 319 318 316 315 314
322 323 324 323 325 325 326 325 320 318 317 318 317 313 312 312 313 314 314 312 311 312 315 320 319 316 314 311 311 309 305 306 305 303 303 302 303 303 304 304 304 304 304 304 304 304 304 305 305 304 304 304 304 303 303 303 304 306 310 319 327 330 329 330 333 333 334 333 332 331 330 330 330 331 331 332 333 333 333 332 332 332 332 333 332 333 333 332 329 324 323 322 321 319 318 317 316
322 322 322 321 323 323 324 321 317 315 313 315 314 311 310 311 311 313 314 313 311 311 312 316 319 317 312 308 308 306 304 305 304 303 302 302 303 303 303 303 303 304 304 304 304 304 305 305 304 305 305 305 304 303 303 303 303 304 305 309 318 328 330 329 330 332 332 333 333 333 332 332 331 332 331 332 333 333 333 332 331 332 332 332 332 332 332 333 330 325 323 324 322 320 320 319 319
322 322 321 322 322 321 321 318 316 314 311 311 311 309 309 310 310 311 312 311 310 310 310 312 315 317 312 308 308 306 305 304 303 302 302 302 303 303 303 302 303 303 304 305 305 305 305 305 305 305 305 305 305 304 303 303 303 303 304 304 309 319 328 330 330 330 330 331 332 333 334 334 333 332 332 332 332 333 333 331 331 331 331 332 331 331 331 332 331 326 323 324 323 321 321 320 321
321 321 321 323 323 320 317 315 314 312 310 309 309 309 309 309 309 309 310 309 309 309 309 309 310 314 314 311 308 307 305 304 303 302 303 303 303 303 302 302 304 304 305 305 305 306 306 306 306 305 305 305 305 305 304 303 303 302 303 303 304 309 319 327 330 330 330 330 330 331 333 334 334 333 333 332 332 332 332 331 332 332 330 331 331 331 331 331 331 328 324 322 322 322 321 321 321
320 321 321 323 321 318 316 314 312 310 309 308 308 308 309 309 309 309 309 308 308 308 307 308 309 311 312 309 307 307 305 304 304 304 304 304 303 302 301 303 304 304 305 304 305 306 307 308 308 307 306 306 306 305 305 304 303 303 302 303 303 304 309 318 326 330 331 331 330 330 330 332 334 334 333 332 331 331 332 332 331 331 330 330 331 331 331 331 331 330 327 322 321 322 322 321 321
319 320 322 322 320 318 316 313 311 310 308 308 307 308 308 308 309 308 309 308 308 307 307 308 309 308 309 309 307 306 305 304 305 305 304 303 302 300 301 303 304 304 304 303 304 305 306 308 309 309 308 307 306 306 306 305 304 303 303 303 303 303 305 309 317 325 329 331 332 331 330 330 331 333 333 332 331 331 332 332 331 331 330 330 331 331 331 331 331 331 330 325 322 321 322 322 321
319 319 321 322 320 318 315 313 311 309 308 307 307 307 308 308 309 308 308 308 307 307 306 307 308 307 308 309 308 306 305 305 305 305 303 302 301 300 301 302 302 303 302 300 301 302 304 307 309 310 309 308 307 307 306 306 305 304 303 303 303 303 304 305 309 316 324 329 331 332 331 330 329 330 332 332 332 332 332 332 331 330 330 330 330 330 330 331 331 331 330 328 324 322 322 322 322
321 321 321 320 318 317 315 313 311 310 309 307 306 307 307 307 308 308 307 306 307 307 305 306 306 306 308 308 307 306 305 305 305 303 302 302 301 301 300 300 300 301 300 299 299 300 302 306 309 310 309 309 309 308 307 306 306 305 305 303 303 303 304 305 305 309 315 323 329 331 332 332 329 329 330 332 333 333 332 332 331 330 330 331 330 329 330 330 331 331 331 330 327 324 322 322 323
321 321 320 319 317 316 314 313 312 311 308 306 306 306 306 307 307 307 308 306 305 306 306 306 306 307 307 306 307 306 305 305 303 302 301 301 300 300 299 299 298 299 299 298 298 299 300 306 309 309 309 309 309 309 308 307 306 306 305 304 304 303 303 304 305 306 309 315 323 328 330 331 331 328 328 330 332 333 333 332 331 330 330 330 329 328 329 330 331 330 330 330 329 326 322 322 322
319 320 320 319 318 316 315 314 313 311 308 306 306 307 306 306 307 306 306 306 305 305 306 306 305 307 306 305 306 305 304 304 302 301 300 299 299 299 299 298 298 297 297 297 298 298 300 307 309 309 310 309 310 310 310 309 307 307 306 305 304 304 304 303 304 305 307 309 315 323 327 330 331 329 328 328 329 332 333 332 332 331 330 329 327 328 329 330 329 329 329 330 329 328 325 323 322
319 318 319 318 317 317 316 315 312 310 308 306 305 307 306 305 306 305 305 306 306 305 306 306 305 306 306 305 305 304 303 302 301 299 298 299 299 300 299 298 298 297 297 297 298 297 300 307 309 309 309 310 310 310 310 310 310 310 308 306 305 304 304 304 304 304 305 307 311 317 323 327 330 330 328 326 326 330 333 333 332 331 330 328 326 325 328 330 329 329 329 329 329 329 327 326 324
319 319 319 317 315 314 313 313 312 309 307 306 306 307 307 306 306 305 305 306 306 306 306 306 305 305 305 305 304 304 302 301 300 299 298 300 300 300 299 298 298 297 297 297 297 296 300 308 309 309 309 309 310 309 310 310 310 310 310 309 307 305 304 304 304 304 304 305 308 312 318 324 327 330 329 326 325 327 331 332 332 332 330 329 326 323 326 329 329 329 329 329 329 329 328 327 325
317 317 316 314 312 311 310 310 310 308 306 306 307 308 308 307 306 306 306 307 307 307 307 306 306 305 305 304 304 303 302 301 300 299 299 300 299 299 299 298 298 297 297 297 297 296 300 307 308 308 310 309 310 310 310 310 310 311 311 310 309 308 307 305 304 304 304 304 305 308 314 320 324 328 329 327 325 327 330 332 332 332 330 330 328 323 324 328 329 329 329 329 329 329 328 328 327
315 315 313 311 309 308 308 308 308 308 306 306 307 307 307 306 307 307 307 307 308 307 307 307 306 306 305 305 305 303 302 302 300 299 299 299 298 298 297 298 297 297 297 297 296 295 299 306 307 306 307 308 309 310 310 310 310 309 310 310 311 310 310 309 307 305 304 304 304 305 309 315 321 325 328 328 327 328 329 331 331 332 331 331 329 325 325 327 327 328 329 329 329 329 328 328 327
312 312 310 309 308 307 308 308 308 307 306 306 306 306 306 306 306 307 307 308 308 307 306 307 306 306 305 305 304 303 303 302 300 299 299 298 297 297 297 297 297 296 296 296 296 296 298 303 306 304 303 305 307 309 310 309 308 308 308 309 310 311 311 310 310 308 306 305 304 304 305 310 317 322 325 328 328 328 328 330 330 331 332 332 330 327 325 327 327 327 328 329 328 329 328 328 328
309 309 308 307 307 307 307 307 307 307 307 307 306 306 306 306 306 307 308 308 307 307 306 306 306 305 305 304 304 304 303 301 300 300 299 298 298 297 296 296 296 295 296 295 296 296 296 300 304 303 300 300 305 308 309 308 307 308 309 308 309 310 311 311 311 311 310 308 306 305 304 306 312 319 323 326 329 328 326 327 329 329 330 331 331 328 325 325 327 327 327 328 328 328 328 328 328
308 307 307 307 307 306 306 306 306 306 307 307 306 307 306 305 306 306 307 308 307 306 306 306 305 305 304 304 304 304 302 301 301 300 299 299 298 297 297 296 296 295 295 295 296 296 295 297 301 302 298 297 303 308 308 308 308 309 309 308 308 309 309 310 310 310 311 311 310 307 305 305 308 315 320 325 328 328 326 327 329 329 329 330 331 327 324 324 326 327 327 327 327 328 328 328 329
308 307 307 307 306 306 306 305 305 306 307 307 307 307 306 306 306 306 307 306 306 306 305 305 305 305 304 304 304 304 302 301 301 300 300 299 298 298 297 297 296 295 295 296 296 295 295 295 298 300 297 296 300 306 308 308 308 308 308 308 308 308 308 309 309 309 311 312 311 310 308 306 306 311 317 322 327 329 328 328 329 329 329 329 330 328 325 325 326 327 327 327 326 327 328 328 329
307 307 307 307 306 306 305 305 304 306 306 307 307 306 306 307 306 306 306 306 306 305 305 305 305 305 304 305 304 303 302 301 301 300 299 299 298 298 298 297 296 295 296 296 296 296 295 295 296 298 297 294 297 303 307 307 308 308 307 308 307 307 307 308 308 309 310 311 311 310 310 308 307 310 315 320 325 328 329 329 329 330 329 329 330 328 325 324 326 327 326 326 326 327 327 327 328
307 306 306 306 306 306 305 305 305 305 306 305 306 306 306 306 306 306 306 306 305 305 305 305 305 305 305 305 303 303 302 301 301 300 299 299 298 298 298 298 297 296 296 296 296 296 295 294 295 296 296 294 294 299 305 308 307 307 307 307 307 307 307 307 308 307 308 309 310 311 311 311 310 311 313 318 324 327 329 329 329 329 329 329 329 329 327 325 325 325 325 325 327 327 327 327 327
307 306 306 306 305 305 305 305 306 305 305 306 306 306 306 305 306 306 306 305 305 305 305 305 305 306 305 304 303 303 302 302 301 300 299 299 298 298 298 298 298 297 297 296 296 295 295 294 294 295 295 295 294 296 303 307 307 307 306 306 306 307 307 307 307 308 307 307 309 310 312 313 313 313 314 317 322 326 328 328 328 327 328 328 327 327 327 326 326 326 326 326 327 327 327 327 326
307 306 306 306 306 306 305 306 306 306 306 307 307 306 305 306 306 306 306 305 305 305 306 306 306 305 305 304 303 303 302 302 301 300 300 299 299 298 298 298 298 298 297 296 296 295 295 294 294 294 294 294 294 294 301 307 307 307 306 306 306 306 307 307 307 309 309 308 309 310 312 313 315 316 316 318 322 325 327 328 326 326 327 326 325 325 325 325 327 327 326 325 325 326 327 326 325
307 307 306 306 306 306 306 305 305 306 306 306 307 306 305 306 306 306 306 305 305 306 306 307 306 305 304 304 304 303 303 302 301 301 301 300 299 299 298 298 298 298 298 297 296 295 295 295 294 294 294 294 293 293 298 306 307 307 307 306 305 306 307 308 308 309 309 309 309 310 313 314 316 317 318 320 322 325 327 327 326 325 326 326 326 326 325 325 325 326 326 325 324 325 326 326 324
307 307 306 306 307 306 306 306 305 306 305 305 306 306 307 307 306 305 305 306 305 306 306 307 306 305 305 304 304 304 303 303 302 301 301 301 300 299 298 298 298 298 298 298 297 296 295 295 295 294 294 293 293 293 296 304 307 307 307 306 306 306 307 308 309 309 309 310 310 312 313 315 317 318 319 321 323 325 326 327 326 325 324 325 325 325 325 325 325 326 326 325 325 324 325 326 324
307 307 307 306 307 306 307 306 306 306 306 305 305 306 308 308 306 305 305 305 305 306 307 307 306 305 305 304 304 304 303 303 302 302 301 301 300 299 299 298 298 298 298 298 298 297 296 296 295 294 294 293 293 293 294 300 305 306 306 306 306 306 307 308 309 309 309 310 312 313 314 315 317 318 320 322 322 325 326 326 327 324 322 323 323 323 323 324 324 325 326 326 325 324 325 325 324
308 308 307 307 309 307 307 307 307 306 306 305 305 307 309 307 306 305 305 305 305 306 306 306 306 305 305 304 304 304 304 304 303 302 301 301 300 300 299 299 299 299 298 298 298 298 297 297 296 294 294 294 293 293 293 295 298 300 304 306 304 306 308 308 308 308 308 310 312 313 314 315 317 318 321 321 321 324 326 326 326 324 322 322 322 323 323 323 324 325 326 326 325 324 326 326 324
309 310 309 311 313 308 306 307 306 306 306 305 305 308 308 306 306 306 304 305 305 306 306 306 306 305 305 304 304 304 304 304 303 302 302 301 300 300 300 299 299 299 298 299 298 298 298 297 297 295 295 294 294 293 293 293 294 295 299 302 302 305 308 308 308 308 308 309 310 312 314 314 316 318 320 320 320 322 323 324 323 323 322 321 320 321 322 323 324 325 326 326 325 324 325 325 324
311 314 314 315 315 309 306 306 307 306 306 306 306 308 308 306 306 306 305 305 305 306 306 306 306 305 305 304 304 304 304 304 303 303 302 302 301 300 299 299 299 300 299 299 299 298 298 298 297 297 295 294 294 293 293 293 293 293 295 297 299 304 307 308 308 308 308 308 309 311 314 315 316 318 318 318 318 319 320 320 320 320 319 318 318 318 320 321 322 324 326 326 325 325 324 324 323
314 316 316 315 314 311 308 306 305 306 306 307 307 307 308 307 307 306 305 306 305 305 306 306 306 305 304 304 304 304 304 304 303 303 302 302 302 301 300 299 299 300 299 299 299 298 298 298 298 297 297 295 294 294 293 293 293 293 293 294 296 301 306 307 308 309 308 307 308 311 314 316 318 318 319 319 319 319 319 320 320 319 318 318 318 317 317 318 320 323 325 325 325 325 325 324 323
316 317 315 312 311 311 310 307 305 305 306 307 307 307 308 308 307 307 306 306 305 305 305 305 305 305 304 304 304 304 304 304 304 303 303 302 302 301 300 299 299 299 299 299 299 299 298 298 298 298 297 296 295 294 294 294 294 293 293 293 294 299 304 306 308 311 310 309 309 311 314 316 318 319 320 319 318 318 319 319 319 319 319 319 320 319 319 320 322 324 325 325 324 324 324 324 323
315 315 314 312 311 311 310 308 306 305 305 307 308 308 308 308 307 307 307 306 305 305 305 305 305 305 305 304 304 304 304 304 303 303 303 302 302 301 300 299 299 299 299 299 299 299 299 299 298 298 298 297 296 294 294 294 294 293 293 293 293 297 303 305 309 311 311 311 312 313 315 316 318 318 318 317 316 317 317 316 317 317 317 318 319 320 321 322 322 323 323 323 321 320 321 322 321
311 312 312 312 312 311 309 307 305 305 306 307 308 308 308 308 308 307 306 306 305 305 305 305 305 305 304 304 304 303 303 303 303 303 302 302 301 301 300 299 299 299 299 299 299 299 299 299 299 298 297 297 297 296 294 294 294 294 293 293 292 294 298 301 305 309 309 311 313 314 315 316 317 317 317 317 317 317 316 316 316 316 316 316 316 317 318 319 319 319 319 319 317 317 317 317 317
309 311 312 311 312 311 308 306 305 305 307 308 308 308 308 308 309 307 306 306 305 306 306 305 305 305 304 304 304 303 303 303 303 303 302 302 301 301 300 299 299 299 299 299 300 300 299 299 299 299 298 297 297 297 295 294 294 294 293 293 292 293 294 295 298 303 306 308 311 313 314 315 315 316 316 317 317 317 317 317 316 316 316 316 316 315 316 316 316 316 316 316 316 316 315 315 315
309 310 312 312 312 311 308 307 306 305 307 308 308 308 308 308 309 308 306 306 306 306 305 305 304 304 304 304 303 303 303 303 303 303 302 302 301 301 300 299 299 299 299 300 300 300 299 299 299 299 299 298 298 297 296 295 294 294 293 292 292 292 293 293 293 296 299 302 306 309 312 314 315 315 316 316 316 317 317 317 316 316 316 316 315 315 315 315 315 315 315 315 315 315 315 315 315
310 311 312 313 312 311 309 307 306 306 307 308 309 308 307 308 308 308 306 305 306 306 305 304 304 304 303 303 303 303 303 303 303 303 302 302 301 301 301 299 299 299 300 300 300 300 299 299 299 299 299 298 298 297 297 296 295 294 293 293 292 292 293 293 293 293 294 296 298 301 306 311 314 315 315 316 316 316 317 317 317 316 316 315 315 315 315 314 314 314 314 314 314 314 314 314 314
310 311 312 312 310 310 311 308 306 306 307 307 307 306 306 308 308 307 306 306 306 305 305 304 304 304 303 303 303 303 303 303 303 302 302 302 301 301 301 299 299 300 301 301 301 300 300 300 299 299 299 299 298 298 297 297 296 295 294 294 293 293 293 293 293 294 294 294 295 295 298 302 308 312 314 316 316 316 316 316 317 317 316 316 316 315 315 315 314 314 314 314 314 314 314 313 313
311 309 309 308 306 306 307 307 306 307 308 307 307 309 311 310 309 308 307 306 305 305 305 304 304 304 303 303 304 304 303 303 303 302 302 302 301 301 301 299 299 300 301 301 301 300 300 300 300 299 299 299 298 298 298 297 297 297 296 295 295 294 294 294 294 294 294 294 294 294 294 295 298 302 306 310 313 315 316 315 315 315 316 316 316 316 316 315 315 314 314 314 314 314 314 313 313
312 306 305 305 304 303 304 306 309 311 313 308 307 314 317 312 309 309 308 306 306 305 305 304 304 304 304 304 304 303 303 303 303 302 302 302 301 301 301 300 299 300 301 301 301 300 300 300 300 300 299 299 299 298 298 298 297 297 297 296 296 295 295 294 294 293 293 293 293 293 294 294 294 295 297 299 303 307 310 312 313 314 314 314 315 315 315 314 314 313 313 313 313 313 313 313 313
313 307 303 304 303 304 305 307 310 315 316 309 307 313 317 314 310 310 308 307 308 307 305 305 304 304 304 304 304 304 303 303 302 302 302 302 302 301 301 300 299 300 301 300 300 300 300 300 300 300 300 300 299 299 298 298 298 297 297 296 296 295 295 294 294 293 293 293 293 293 293 294 294 294 294 294 295 297 300 303 307 310 312 313 313 313 313 313 312 312 312 312 312 312 312 312 312
313 306 303 305 304 305 306 307 310 312 312 310 309 310 313 316 313 310 309 308 309 309 307 306 304 305 305 304 304 304 303 303 302 302 302 302 302 301 301 301 300 300 300 300 300 300 300 300 300 300 300 300 300 300 299 298 298 297 297 297 296 296 295 295 294 293 293 293 293 293 293 294 293 293 293 293 293 294 294 295 297 300 303 306 309 310 311 312 311 311 311 311 311 311 311 311 310
309 304 303 304 304 305 306 308 310 310 311 313 311 309 313 318 313 309 308 309 309 310 309 307 305 305 305 304 304 304 303 303 302 302 302 302 302 301 301 301 300 300 300 300 300 300 300 300 300 300 300 300 301 300 300 299 298 297 297 297 296 296 296 295 295 294 294 293 293 293 293 293 294 294 294 294 293 293 294 294 294 294 295 297 299 302 304 306 307 309 309 310 310 310 310 310 310
306 303 304 304 304 306 306 308 310 310 314 315 310 308 313 317 314 310 309 309 309 309 308 307 305 305 305 304 304 304 303 303 302 302 302 302 302 302 301 301 301 300 300 300 300 300 300 299 299 300 300 300 301 301 301 300 299 298 297 297 297 296 296 296 295 295 294 294 294 294 294 293 293 293 294 294 294 294 293 293 293 294 293 294 294 295 296 297 299 300 302 306 308 309 309 309 308
304 304 306 306 306 306 307 308 308 312 318 314 308 307 309 314 315 312 311 310 309 308 308 307 306 305 305 305 304 304 303 303 303 302 302 302 302 302 302 301 301 301 300 300 300 300 300 299 299 299 300 300 301 301 301 301 300 299 298 297 297 297 297 296 296 296 295 295 294 294 294 294 294 294 293 293 294 294 293 293 293 293 293 293 293 293 294 294 294 294 295 297 301 304 305 306 306
304 306 307 311 313 310 310 310 310 317 323 313 306 306 307 313 315 310 308 308 307 307 307 306 306 305 305 304 304 304 303 303 303 303 302 302 302 302 302 301 301 301 301 301 300 300 299 299 299 299 299 300 300 301 301 301 301 300 299 298 297 297 297 297 296 296 296 296 295 295 294 294 294 294 294 293 293 293 293 293 293 293 293 293 293 293 293 293 293 293 294 293 294 296 298 300 301
307 308 310 317 322 318 317 319 317 321 320 310 306 307 310 314 312 308 308 308 306 307 306 305 305 305 304 304 304 303 303 303 303 303 303 303 303 302 302 302 302 301 301 301 301 301 300 300 299 299 299 299 299 300 301 301 301 300 300 299 298 297 297 297 297 297 296 296 296 296 295 295 295 294 294 294 293 293 293 293 293 293 293 293 293 293 293 293 293 293 293 293 293 293 294 294 294
310 311 313 319 322 321 322 323 321 323 318 309 304 307 314 315 311 308 307 307 306 306 305 305 305 304 304 304 304 304 304 304 304 303 303 303 303 302 302 302 302 301 301 301 301 301 301 300 300 299 299 299 299 300 300 301 301 300 300 300 299 299 298 297 297 297 297 296 296 296 296 296 296 295 295 294 294 294 294 293 293 293 293 293 293 293 293 293 293 293 293 293 293 293 293 293 293
310 308 310 316 316 316 321 321 322 323 319 312 307 309 316 315 311 308 306 306 306 306 305 305 305 305 304 304 304 304 304 304 304 304 303 303 303 303 302 302 302 302 301 301 301 301 301 301 300 300 300 299 299 299 300 300 300 300 300 300 300 299 299 298 298 297 297 297 297 296 296 296 296 296 296 295 295 295 294 294 294 293 293 293 293 293 293 293 293 293 293 293 293 293 293 293 293
311 308 311 315 311 310 315 317 315 314 315 316 314 316 317 312 309 307 305 305 305 305 306 305 305 305 304 304 304 304 305 304 304 304 303 303 303 303 303 303 302 302 302 301 301 301 301 301 301 300 300 300 299 299 299 300 300 300 300 300 300 300 299 299 299 298 298 297 297 297 297 296 296 296 296 296 296 296 295 295 295 294 294 294 293 293 293 293 293 292 292 292 292 292 293 293 293
311 311 313 310 304 306 313 315 310 308 314 320 318 317 316 311 309 307 305 306 305 305 306 305 305 305 305 305 305 304 305 304 304 304 303 303 303 302 303 303 303 302 302 302 301 301 301 301 301 301 300 300 300 300 300 300 300 300 300 300 300 300 300 299 299 299 299 298 298 297 297 297 297 296 296 296 296 296 296 296 296 295 295 294 294 294 294 293 293 293 293 293 293 293 293 293 293
310 312 309 305 304 306 310 314 314 314 318 320 316 316 317 316 314 309 306 307 307 306 306 306 306 306 305 305 305 305 305 304 304 304 304 304 303 303 302 303 303 303 302 302 302 302 301 301 301 301 301 300 300 300 300 300 300 300 300 300 300 300 300 300 299 299 299 299 299 298 298 297 297 297 296 296 296 296 296 296 296 296 296 295 295 295 294 294 294 294 294 294 294 294 294 294 294
306 308 304 305 311 312 312 314 315 317 318 319 318 316 316 317 314 310 309 310 308 307 307 306 306 306 306 305 305 305 304 304 304 304 304 304 303 303 303 303 303 303 303 303 302 302 302 302 302 301 301 301 300 300 300 300 300 300 300 300 300 300 300 300 300 299 299 299 299 299 298 298 298 298 297 297 296 296 296 296 296 296 296 296 296 295 295 295 295 295 294 294 294 294 294 294 294
303 305 304 306 310 311 311 311 312 314 316 318 320 318 316 315 312 310 310 310 308 308 308 307 306 306 306 305 305 304 304 304 304 304 304 304 304 304 303 303 303 303 303 303 303 303 303 303 302 302 302 301 301 300 300 300 300 300 300 300 300 300 300 300 300 299 300 299 299 299 298 298 298 298 298 298 297 297 296 296 296 296 296 295 295 295 295 295 295 295 295 295 294 294 294 294 294
307 309 308 308 308 307 309 309 308 310 314 315 316 318 318 313 309 309 309 309 309 308 308 307 306 306 305 305 305 304 304 304 304 304 304 304 304 304 304 304 303 303 303 303 303 303 303 303 303 303 303 302 302 301 301 300 300 300 300 300 300 300 299 299 299 299 299 299 299 299 299 298 298 298 298 298 298 298 297 297 296 296 296 296 295 295 295 295 295 295 295 295 295 294 294 294 294
306 308 307 308 308 308 312 313 308 307 310 311 311 314 316 312 308 308 308 307 307 306 306 306 306 306 305 305 305 305 305 304 304 304 304 304 304 304 304 304 304 304 303 303 303 304 304 304 303 303 303 303 302 302 301 301 300 300 300 300 300 300 300 299 299 299 299 299 299 299 299 299 298 298 298 298 298 298 297 297 297 297 296 296 296 296 295 295 295 295 295 295 295 294 294 294 294
Wind_Speed
7 6 5 3 2 3 3 2 4 2 2 5 5 3 4 7 8 9 10 5 5 8 8 6 8 12 9 6 7 9 10 7 3 4 4 8 16 16 19 26 26 27 28 28 28 27 28 27 25 23 22 22 19 18 17 17 17 15 13 11 8 8 11 14 14 14 14 14 14 15 15 15 15 17 17 16 14 15 14 12 12 11 10 10 9 8 6 6 5 3 2 2 2 3 4 5 7
8 7 6 3 1 2 3 2 2 1 4 6 5 5 5 7 10 10 10 8 7 6 5 6 7 10 9 9 7 7 10 9 7 7 6 11 17 19 24 27 27 28 28 29 29 28 28 28 28 26 24 24 22 20 17 16 17 17 15 12 10 8 9 11 13 16 16 15 15 16 17 16 16 17 18 18 16 15 15 14 15 13 11 11 11 10 8 8 7 5 3 3 3 3 5 5 6
9 7 8 4 2 4 4 2 1 2 5 6 4 5 7 7 9 9 9 9 9 6 3 4 6 8 5 6 5 5 7 6 10 13 9 14 21 25 27 27 27 27 28 29 29 29 28 28 28 28 27 25 24 22 20 18 16 17 15 15 15 12 10 8 10 16 18 17 18 18 18 17 18 18 18 18 17 16 15 15 16 14 12 13 12 10 10 9 8 6 4 4 5 5 5 6 7
9 7 8 4 4 3 3 1 2 4 5 4 4 5 7 7 8 8 9 9 10 8 7 3 3 8 8 8 5 5 8 6 10 15 13 17 22 26 27 27 27 27 28 28 29 29 28 28 28 28 28 27 26 24 22 20 18 17 16 16 18 17 16 12 12 15 16 17 19 19 19 19 19 18 17 18 18 17 16 16 16 15 13 14 13 11 11 11 10 8 6 6 5 6 6 6 6
8 5 5 6 4 2 1 3 3 5 5 3 4 5 7 8 7 6 7 8 10 11 11 8 3 7 9 11 6 2 7 7 8 15 15 18 21 25 27 27 28 29 29 29 29 29 29 29 28 27 27 27 27 26 24 22 20 19 17 17 17 19 19 16 16 17 16 17 19 20 21 20 20 19 18 18 18 18 18 16 16 16 14 14 14 12 12 12 11 9 8 7 6 6 7 6 6
8 4 6 6 6 6 2 5 5 6 6 5 5 5 8 8 8 7 7 7 9 12 12 11 5 6 8 9 10 7 7 7 9 14 16 20 23 25 26 27 28 28 29 29 29 28 28 28 28 27 26 26 26 26 26 24 22 20 20 18 16 17 19 20 19 19 18 18 18 19 21 21 22 21 19 18 18 19 17 16 16 16 15 15 15 13 13 13 12 11 9 8 7 7 7 6 5
7 1 2 3 8 9 5 6 6 5 7 8 7 6 8 9 10 9 8 7 8 12 12 11 8 3 6 5 8 10 9 10 11 13 17 21 23 24 25 26 27 27 28 29 29 28 27 27 27 27 26 25 25 26 25 25 23 21 21 20 18 16 17 21 23 22 21 20 19 18 18 19 22 23 20 18 17 17 17 16 15 16 16 15 16 14 14 14 13 13 11 10 9 7 7 7 6
5 1 1 2 5 6 6 7 6 5 6 8 9 8 9 9 10 9 10 9 8 11 11 12 12 4 4 7 8 8 8 10 13 15 19 22 23 24 25 25 25 26 27 29 30 29 29 27 26 26 26 24 24 24 24 25 24 22 21 21 21 18 17 19 22 24 24 23 22 21 18 15 18 22 22 19 17 17 18 17 16 15 15 16 16 16 16 15 14 14 13 12 10 9 9 8 7
3 2 1 4 5 5 6 6 6 6 7 8 9 10 10 10 10 10 9 10 9 11 13 13 13 7 4 11 12 6 8 11 16 18 20 21 22 23 22 23 24 25 26 29 29 30 30 29 27 26 25 24 23 22 23 23 23 23 21 21 21 21 20 19 20 23 25 25 24 25 23 18 15 18 21 21 19 19 19 18 17 16 15 16 16 16 17 16 15 15 14 13 12 11 10 10 9
2 2 1 4 4 6 6 5 5 5 7 8 9 10 10 10 10 11 9 10 11 11 14 11 9 12 7 9 10 6 8 14 19 19 19 20 20 20 20 21 23 25 27 29 30 31 31 31 29 27 25 24 23 22 21 21 22 22 22 21 20 21 22 21 20 21 23 26 26 26 26 24 19 16 18 21 21 21 20 20 19 18 17 16 15 16 18 17 16 16 15 14 13 12 12 11 10
2 2 0 4 5 6 5 5 5 5 6 7 9 10 10 10 9 11 10 10 12 13 17 12 8 13 11 8 9 6 9 16 19 19 19 20 19 20 21 22 25 27 29 31 31 32 33 33 31 28 26 24 23 22 21 20 20 20 21 21 20 21 22 23 22 21 21 24 26 27 27 26 24 18 15 18 22 23 23 22 21 20 18 17 16 16 17 18 18 17 15 14 14 14 13 12 11
3 3 4 5 5 5 5 5 5 5 6 5 7 9 9 11 9 9 10 10 12 12 15 14 8 10 8 7 7 5 13 18 19 20 20 20 20 22 23 24 26 28 29 31 32 33 35 36 34 31 29 26 24 22 21 20 20 20 20 21 21 20 21 23 23 23 22 22 24 27 29 27 26 23 18 17 21 24 24 24 24 23 19 17 17 17 17 18 19 18 16 14 14 15 14 13 12
7 5 6 5 5 5 6 5 5 6 5 4 6 8 9 10 10 10 8 10 12 10 10 13 11 6 6 6 4 8 18 19 20 20 21 22 23 23 24 25 26 27 28 30 31 32 35 36 36 35 32 30 27 24 22 20 19 20 20 20 20 20 20 21 22 24 24 23 22 25 28 28 28 26 22 20 20 22 24 25 26 25 22 20 19 18 18 18 18 18 17 16 15 15 14 14 13
10 8 6 4 5 5 5 4 4 4 3 4 4 6 8 9 9 9 9 8 10 9 5 10 12 4 7 7 5 15 20 18 20 20 22 23 24 24 25 25 25 25 27 29 30 32 35 36 36 35 34 33 31 29 24 19 18 20 21 19 20 20 20 20 20 22 24 24 23 23 25 27 29 28 26 23 21 21 22 25 27 27 25 22 20 19 18 18 17 17 18 18 16 15 15 15 14
11 11 8 4 5 4 3 3 5 5 3 4 4 3 7 8 7 7 9 5 7 8 3 8 12 3 5 7 8 16 18 19 20 21 24 24 24 25 25 25 25 25 26 27 29 32 35 36 36 35 34 33 33 33 29 24 22 22 22 19 18 19 20 20 20 20 22 23 23 23 24 25 28 30 29 25 23 22 22 25 27 28 27 24 22 20 19 18 17 18 19 18 17 16 15 15 15
8 7 5 4 5 4 4 3 5 5 3 4 3 1 4 7 6 6 6 4 5 7 5 8 10 6 5 6 8 13 16 18 20 23 26 25 26 25 25 26 26 26 27 27 29 32 34 35 36 35 33 33 34 33 32 29 26 25 23 19 17 18 19 21 21 20 20 22 23 24 24 24 26 29 30 27 26 25 24 24 26 28 28 27 25 23 21 19 18 19 19 18 16 15 15 15 15
7 7 5 5 6 5 4 5 3 4 4 5 3 3 2 5 4 3 3 3 4 5 7 7 8 9 6 7 9 13 16 18 18 23 26 26 27 26 26 26 27 28 29 29 30 31 33 34 35 35 34 34 34 35 34 32 30 30 27 23 20 19 19 20 21 21 20 20 22 24 24 24 25 27 30 29 28 27 25 24 26 27 27 28 26 25 23 19 18 18 18 18 18 17 15 15 15
8 4 6 5 4 4 4 5 5 6 5 6 5 6 5 4 4 4 4 1 5 6 9 8 8 9 9 8 11 15 18 17 18 23 26 27 27 27 28 27 28 29 30 31 31 32 33 34 34 34 34 35 35 36 37 35 36 38 35 31 27 23 20 20 20 21 21 21 20 22 24 24 25 26 29 30 29 28 26 25 26 26 26 27 25 24 23 20 18 18 17 18 19 18 18 19 17
12 4 5 5 3 5 7 8 8 8 6 7 6 7 8 5 6 7 5 4 7 8 9 8 8 10 10 11 14 16 18 16 18 22 25 27 27 28 28 28 29 30 31 32 31 31 32 33 33 34 35 36 36 36 38 37 38 40 39 36 34 29 24 22 21 21 21 21 21 21 23 25 25 26 27 28 29 29 27 26 25 27 28 28 26 25 25 22 20 19 18 18 19 19 20 21 19
13 8 6 4 5 8 10 10 10 9 6 8 6 5 8 7 6 7 7 4 6 9 8 10 10 11 12 13 15 17 16 16 17 20 23 25 25 27 28 28 29 30 32 31 31 30 30 31 32 33 34 35 35 35 37 36 36 38 40 39 38 36 30 26 24 23 22 22 22 21 21 24 25 25 25 26 28 30 29 28 26 27 28 28 28 27 26 24 21 21 20 19 19 20 21 21 20
10 9 6 5 9 8 9 10 9 9 7 7 5 3 6 6 7 9 10 4 4 9 9 8 9 11 12 14 15 15 15 16 18 20 23 24 25 26 27 27 27 29 30 30 31 30 30 30 31 33 34 34 35 36 36 36 37 38 40 40 40 39 35 30 27 27 25 23 22 21 21 22 24 25 23 24 28 31 31 31 28 28 29 29 29 27 26 25 23 23 22 21 20 20 20 21 22
10 10 11 11 10 7 7 9 8 8 6 5 4 4 4 3 5 10 11 5 4 7 7 6 7 9 11 13 15 14 15 16 18 20 22 23 24 26 27 27 27 29 30 30 31 30 29 29 31 32 33 33 34 35 36 36 36 37 38 39 39 39 37 34 30 29 27 24 22 21 20 20 22 24 22 22 26 31 34 32 29 29 30 30 29 28 26 25 24 24 23 20 20 20 19 21 24
9 10 14 14 11 9 7 7 8 7 5 6 5 5 3 2 4 7 9 7 4 5 5 6 7 9 10 12 13 13 14 14 16 18 20 21 23 25 27 27 27 29 30 30 30 30 28 28 30 31 33 33 34 35 35 34 35 37 39 39 39 38 37 34 30 29 29 24 20 18 19 18 20 21 21 21 24 30 33 33 29 28 30 31 29 28 27 26 26 25 23 21 20 21 21 23 25
12 8 11 14 12 11 9 7 8 6 6 7 4 3 4 4 3 4 7 5 4 4 4 6 8 9 9 10 11 13 13 13 16 17 17 19 22 23 25 26 27 28 30 30 30 29 28 28 29 30 32 33 34 35 35 35 37 39 40 41 40 39 37 33 29 27 27 24 19 16 16 16 17 18 20 20 22 28 31 32 31 25 27 31 29 27 26 26 27 26 25 23 22 21 21 23 24
12 8 10 12 11 11 9 8 7 6 7 5 2 3 5 4 3 4 5 4 3 3 4 6 8 9 8 9 11 12 12 13 16 16 16 18 21 22 24 25 26 28 30 30 30 29 29 28 29 30 31 32 34 35 35 36 37 38 40 43 43 42 39 33 27 24 25 23 18 15 14 14 14 15 17 18 20 25 28 30 30 26 25 27 26 24 25 26 27 26 25 23 21 19 18 20 22
9 11 12 12 10 9 7 8 7 5 5 3 3 3 3 1 1 3 4 3 3 4 5 5 7 7 7 9 11 12 11 14 16 16 18 19 20 22 23 25 26 28 29 30 30 30 29 28 30 31 32 33 33 33 34 35 35 38 40 43 43 43 41 35 28 23 22 21 18 13 12 12 12 11 13 15 17 21 24 27 25 24 26 26 25 23 25 27 25 23 22 21 20 16 17 21 24
12 15 15 13 11 8 6 7 6 4 4 5 5 3 3 2 2 1 3 3 3 5 4 4 5 6 7 9 11 11 11 14 15 15 20 22 22 22 23 25 26 27 29 29 30 30 30 31 33 32 32 32 32 32 33 32 34 37 40 42 43 44 41 35 28 24 20 19 16 12 10 10 10 8 8 11 15 17 19 22 21 20 26 29 27 24 23 27 25 20 18 18 19 17 18 22 24
19 17 14 13 12 9 7 7 3 1 2 3 6 3 1 2 2 1 2 3 3 5 4 3 4 5 7 8 10 11 11 14 15 16 21 23 23 22 23 25 26 27 28 28 29 30 32 33 33 31 30 30 31 32 32 32 34 36 39 42 43 43 40 34 28 24 21 17 13 11 9 8 7 5 4 6 10 14 14 17 18 17 22 25 26 24 23 24 22 18 15 16 19 19 18 21 24
16 11 9 9 9 8 5 5 2 1 1 1 3 2 2 3 1 2 1 2 3 6 5 3 4 5 6 8 9 11 12 13 14 17 20 23 23 22 22 23 25 26 27 27 28 30 31 32 31 29 28 29 30 31 31 31 31 33 37 40 41 41 39 35 29 25 21 17 13 9 7 5 3 1 2 2 0 7 11 15 17 15 16 18 20 22 21 20 18 16 16 16 18 18 17 22 25
6 2 4 6 5 4 4 4 1 1 1 0 1 1 1 3 4 3 0 2 3 5 5 4 4 5 6 8 10 11 12 13 14 15 18 21 23 22 22 22 23 25 26 27 27 28 29 30 30 29 29 28 29 31 30 30 31 33 34 36 39 39 38 35 30 25 21 18 13 8 4 2 1 4 6 7 7 7 10 14 16 13 12 12 14 15 16 16 16 17 18 18 18 17 18 24 27
2 2 2 3 1 2 3 7 5 0 1 1 1 1 2 4 5 4 0 1 2 5 5 5 4 5 7 8 10 10 12 13 12 13 16 19 22 22 23 22 22 24 25 26 27 27 28 28 29 29 29 29 29 29 29 30 32 34 33 35 38 38 36 35 31 26 21 17 13 6 2 2 3 6 7 6 6 9 11 13 14 13 11 12 14 15 15 15 14 15 17 18 19 18 19 24 27
2 2 1 3 2 3 2 8 9 3 1 2 2 2 1 4 6 5 0 1 1 5 6 5 4 5 6 8 10 10 12 13 11 13 16 18 20 22 23 22 22 23 24 25 25 25 26 27 28 29 29 29 28 28 29 31 32 32 32 35 37 36 35 34 31 27 23 16 11 5 5 6 7 8 8 6 5 7 7 8 10 11 11 12 14 15 15 14 13 14 16 17 18 19 20 23 26
1 2 2 4 3 2 2 5 11 9 6 4 6 2 2 3 6 6 2 1 2 6 7 5 4 5 6 7 9 10 13 13 12 16 18 18 20 23 24 22 21 22 23 23 23 24 25 26 27 28 29 29 28 28 29 30 30 30 32 33 35 36 35 33 33 31 27 19 9 6 7 9 11 11 10 9 10 11 9 8 8 7 7 8 11 12 13 14 14 16 16 17 18 19 21 23 25
3 3 2 1 2 2 1 2 9 12 7 2 6 4 3 3 6 5 3 2 3 6 7 5 5 5 6 7 8 10 13 13 13 18 18 19 21 23 24 21 20 21 21 21 22 24 25 26 27 27 28 29 29 29 29 29 28 29 31 31 33 36 34 33 34 32 30 25 19 14 11 11 13 13 13 15 18 19 19 18 17 14 12 9 8 10 12 13 14 17 19 21 22 23 25 25 26
4 4 2 1 1 2 3 1 5 9 6 4 4 5 3 1 4 5 5 3 3 5 6 5 5 6 6 7 8 10 13 13 14 17 17 18 21 23 24 21 19 20 21 21 22 23 24 25 25 25 27 28 28 29 28 28 29 29 29 30 31 34 34 32 32 31 31 30 29 26 22 20 20 21 20 20 20 20 21 22 22 20 18 16 12 10 9 8 10 14 17 19 20 21 23 24 26
4 3 2 2 2 1 3 2 3 6 4 5 5 4 4 4 3 4 5 3 3 6 5 4 6 5 5 6 7 10 13 13 14 14 14 17 19 22 23 21 18 19 21 22 22 22 23 24 24 24 25 27 27 28 29 29 29 28 28 28 29 31 32 31 29 29 29 30 29 27 27 26 23 21 19 17 17 17 18 19 19 17 15 14 14 14 14 11 8 8 9 9 11 13 14 15 17
3 4 3 1 1 1 2 2 3 4 3 4 4 4 6 6 6 5 5 2 4 6 4 4 5 4 5 7 7 9 12 14 13 12 13 14 17 20 22 21 19 19 20 21 21 22 23 23 24 24 24 25 27 28 29 28 28 29 29 27 27 27 28 30 29 28 29 30 28 25 25 24 21 18 17 15 15 15 15 15 15 14 12 11 11 13 14 15 15 14 13 11 11 14 15 14 12
4 3 4 2 1 1 1 3 2 4 3 4 3 5 7 6 7 6 7 4 5 3 1 3 5 5 6 7 8 10 13 14 13 12 12 13 16 19 19 19 19 18 19 20 20 22 22 23 23 24 24 24 25 26 27 28 27 27 27 26 25 25 25 28 29 29 29 29 28 26 24 22 20 18 17 16 15 15 14 13 14 14 12 10 10 12 12 13 13 12 11 10 10 11 13 14 13
4 3 4 3 2 3 0 4 2 3 1 4 5 7 8 8 8 6 9 6 4 2 2 3 4 5 6 7 9 10 12 13 13 13 13 13 15 18 19 18 16 16 16 18 20 21 22 22 22 23 24 23 23 24 25 26 26 25 24 24 24 23 23 24 26 26 27 27 27 27 25 22 20 18 16 15 14 14 13 12 11 11 12 10 9 10 10 10 9 8 6 6 7 7 8 11 12
3 3 2 3 4 3 1 2 4 5 2 4 6 7 8 7 5 5 8 8 4 3 4 3 4 5 5 7 7 8 10 12 13 14 14 14 15 18 18 16 15 14 14 16 19 20 21 21 22 22 23 23 23 23 23 23 24 24 23 22 22 22 22 21 22 23 24 25 25 26 25 23 21 19 16 14 14 13 13 11 9 8 8 8 9 8 8 8 8 7 6 4 3 2 5 7 10
3 4 3 2 3 2 3 4 6 6 2 3 6 5 4 3 4 4 5 6 4 5 6 4 5 5 5 7 5 5 10 11 13 14 14 14 15 17 18 15 13 13 12 15 17 20 21 21 21 22 23 23 23 22 22 22 22 23 23 21 20 21 22 22 22 23 23 24 24 24 24 23 22 20 18 15 14 13 12 11 9 8 7 5 5 6 7 8 7 6 6 5 2 1 2 5 9
1 2 1 2 3 4 5 6 6 4 1 2 2 2 3 2 5 3 3 4 4 8 10 6 4 4 5 5 4 5 9 10 12 15 14 13 15 17 18 15 12 11 11 13 16 18 20 21 21 21 22 23 23 22 22 22 22 22 23 23 22 22 23 23 24 24 23 23 22 21 21 21 20 20 19 17 16 14 12 11 10 9 8 6 4 4 5 6 5 4 4 4 2 2 2 4 8
2 3 2 2 3 4 5 4 3 1 2 3 2 3 2 3 2 3 5 3 5 6 10 8 4 3 4 4 5 7 8 9 12 14 13 14 16 17 18 16 12 10 11 12 14 17 19 20 21 20 21 23 23 22 21 21 22 21 22 23 23 22 22 22 21 21 20 20 19 18 18 18 18 18 18 18 17 16 14 12 11 10 8 7 6 5 5 4 4 3 3 3 2 2 3 2 5
3 3 3 4 3 4 4 2 1 1 2 3 3 3 1 3 3 1 4 1 6 2 5 7 5 3 3 3 5 7 8 10 12 14 14 14 16 17 17 17 14 11 11 12 13 15 17 19 20 19 20 21 22 22 21 21 21 21 21 21 21 21 21 20 19 19 18 17 17 17 16 16 16 15 15 15 15 15 15 14 13 11 9 8 6 5 4 3 3 3 2 2 2 3 3 2 3
1 1 2 3 3 3 3 2 3 2 2 2 4 3 1 3 4 2 3 2 4 2 4 5 4 3 2 4 6 7 9 10 13 16 15 13 15 17 17 17 16 13 12 13 13 14 16 17 18 18 17 18 21 22 22 21 20 20 20 19 19 20 20 19 18 17 16 16 15 15 14 14 14 13 13 13 12 12 12 13 12 11 10 9 8 7 6 5 4 3 2 2 2 3 3 3 4
1 2 1 2 2 3 2 2 3 2 2 0 4 3 2 3 4 1 1 3 2 3 4 4 4 2 3 4 5 7 9 11 15 18 17 14 15 16 17 17 17 16 14 14 14 14 15 16 17 17 16 16 17 19 20 21 20 19 18 18 18 17 18 18 18 18 16 16 15 14 14 13 12 12 11 11 11 10 10 9 9 9 9 9 9 8 7 7 6 5 4 3 3 4 5 5 5
3 3 1 2 1 1 2 2 2 1 1 1 2 3 2 1 3 1 2 1 1 2 2 3 4 4 4 4 5 8 10 13 16 18 17 16 15 16 17 17 17 17 17 16 15 16 16 16 16 16 16 15 15 16 17 18 19 18 17 17 16 16 16 16 17 18 17 17 16 15 15 14 13 12 11 10 9 9 8 7 7 6 6 6 6 6 6 6 6 6 5 4 4 4 6 6 5
2 1 2 1 0 0 0 1 1 2 2 2 1 1 1 1 3 1 4 3 4 3 3 4 6 7 7 7 8 10 12 14 15 16 16 17 17 16 16 17 17 17 17 17 17 16 16 16 16 16 16 15 14 14 15 16 17 18 17 17 16 15 15 14 15 16 17 17 17 16 16 15 14 13 12 10 9 8 7 7 6 5 5 4 4 3 3 3 3 3 3 3 3 4 4 5 4
1 1 2 2 2 2 2 2 1 1 2 3 2 1 1 3 3 3 6 5 5 3 2 3 4 6 8 9 10 11 12 13 13 14 15 18 18 17 17 18 18 18 17 17 17 17 17 17 16 16 16 15 15 15 15 15 15 16 17 17 17 16 15 14 13 13 13 14 15 16 16 15 15 14 13 12 11 9 8 7 6 6 5 4 4 4 3 2 2 1 0 0 1 2 2 3 4
4 3 2 3 3 3 3 3 3 1 2 3 3 1 1 2 2 3 5 5 5 3 1 1 4 6 8 9 10 12 13 12 12 13 16 18 18 17 17 17 17 18 18 17 17 17 17 17 17 17 17 16 16 15 14 14 14 14 14 14 15 16 16 16 15 13 12 11 12 13 14 14 14 14 13 13 12 11 10 9 8 7 6 6 5 4 4 4 4 4 3 3 3 3 4 4 5
4 1 1 2 2 2 1 2 2 3 5 3 1 1 1 2 1 3 7 6 4 2 1 2 4 6 7 9 11 12 12 12 14 16 18 19 18 17 17 17 17 17 17 18 17 17 17 17 16 17 17 17 17 16 15 14 14 13 13 12 13 13 14 15 15 15 14 13 11 11 11 12 13 13 12 12 12 12 11 10 10 9 8 7 7 6 5 5 5 5 5 5 5 5 6 6 7
4 2 2 1 0 1 1 0 1 2 3 3 2 2 3 2 1 3 5 3 4 3 4 5 5 7 7 9 11 11 12 13 16 19 20 20 19 18 18 18 17 17 17 18 18 18 18 18 17 17 17 17 17 17 16 15 14 13 12 12 12 11 12 13 13 15 15 15 14 13 12 11 11 12 12 11 11 11 11 11 10 10 10 9 9 8 7 7 7 6 6 6 6 6 7 7 7
2 3 2 1 1 2 1 1 1 1 1 3 2 2 3 2 2 1 2 2 5 5 4 5 5 6 7 9 10 11 12 15 18 20 21 22 21 19 18 18 18 18 18 18 18 18 19 19 19 18 18 18 17 17 17 16 15 14 13 12 12 12 12 12 12 13 14 15 15 15 15 14 13 13 13 12 12 11 11 11 10 10 10 10 10 9 9 9 8 8 8 8 7 8 8 8 8
1 2 1 1 2 3 2 1 2 2 2 3 3 4 4 2 3 3 1 3 6 6 4 4 5 5 5 8 10 11 14 16 18 19 20 20 20 20 18 18 18 19 19 18 18 18 19 19 19 19 19 19 18 18 18 17 16 16 15 14 13 12 12 12 12 12 13 14 14 15 16 16 16 16 15 14 14 14 13 12 12 11 11 10 10 10 10 10 10 10 10 10 10 10 9 9 9
2 1 2 1 2 1 1 0 1 2 3 5 4 5 4 3 2 2 3 6 6 5 5 4 5 5 6 9 11 14 16 17 18 18 18 18 18 18 17 17 18 19 19 20 19 18 18 18 19 19 19 19 19 19 20 19 18 18 17 16 15 14 13 13 13 13 13 14 14 15 16 16 17 17 17 17 16 16 16 15 15 14 13 13 12 12 11 11 11 11 11 11 11 11 11 11 11
2 2 1 1 2 2 1 1 1 0 1 4 4 4 3 3 3 2 3 5 6 5 4 5 6 8 10 12 13 16 17 17 17 17 16 17 17 17 17 17 17 18 19 19 19 19 19 19 19 19 19 19 19 20 20 20 20 19 19 18 17 16 16 15 14 14 14 14 14 15 16 17 17 18 18 18 18 18 18 18 18 17 17 16 15 15 14 14 13 13 13 13 13 13 13 13 13
2 2 2 2 1 1 0 1 0 1 0 2 4 5 5 3 2 1 2 3 4 4 3 6 9 12 14 15 15 17 17 17 17 17 17 17 18 18 19 18 18 18 18 18 19 20 20 19 19 19 19 19 19 19 20 21 20 20 21 20 19 18 18 18 17 16 16 16 15 16 16 17 18 19 19 19 19 18 19 19 20 20 19 19 19 18 17 17 16 16 16 15 15 15 15 15 15
1 1 2 1 1 1 2 2 2 1 1 1 1 4 7 5 2 0 2 3 2 2 5 9 13 16 17 16 17 17 18 18 18 18 19 18 18 19 19 19 18 18 17 17 18 20 21 20 19 19 19 19 19 19 19 20 21 22 22 22 21 20 20 20 19 19 19 18 18 17 17 18 19 19 20 21 21 20 20 20 21 21 21 21 21 20 20 20 19 19 19 19 19 18 18 18 18
Wind_Direction
174 172 166 173 192 272 274 263 268 239 96 70 65 64 64 47 44 45 44 58 60 42 38 49 45 40 54 86 100 91 59 45 44 341 336 326 329 331 327 338 346 343 345 345 345 343 341 339 339 337 333 330 325 322 320 318 313 296 285 289 295 270 253 249 252 257 255 253 257 261 258 255 254 254 250 247 251 253 257 260 259 256 256 254 239 235 241 248 254 266 278 290 299 317 326 330 328
153 147 138 136 193 292 302 195 243 268 104 73 50 41 50 53 50 49 42 42 36 41 44 39 59 62 82 103 110 94 58 64 47 358 330 317 323 334 339 346 347 344 346 345 344 342 341 339 336 336 333 330 324 321 318 316 314 305 288 274 282 271 253 257 258 257 256 252 253 259 258 257 256 255 250 247 247 249 254 259 258 251 251 250 241 235 238 250 254 259 269 281 297 308 316 320 321
136 135 129 115 309 293 285 195 319 324 97 81 64 37 32 46 50 57 51 49 43 42 41 47 61 33 57 91 68 70 53 58 26 1 335 331 333 340 345 347 346 346 346 345 344 342 341 339 336 334 332 330 326 323 319 314 310 310 296 270 266 262 258 275 272 259 257 252 250 254 256 258 258 258 255 251 249 248 249 253 256 248 241 240 238 238 239 249 252 258 268 276 296 307 313 313 314
130 137 120 69 327 277 274 98 20 18 71 75 87 43 33 46 45 64 62 52 46 35 18 25 76 33 51 55 29 76 41 17 12 358 341 339 336 340 345 345 346 348 347 345 343 341 341 339 336 333 330 328 327 325 320 315 309 308 303 283 269 262 261 270 267 257 261 257 253 254 254 257 259 260 257 251 249 248 245 247 258 252 238 234 235 235 240 248 246 249 260 273 292 302 309 310 317
117 111 67 11 323 278 332 55 33 46 43 15 90 56 38 40 28 55 70 63 50 38 23 12 63 70 68 47 27 76 16 353 351 351 339 336 338 343 346 348 351 351 349 346 344 343 341 339 336 333 331 327 325 324 322 317 311 306 302 297 284 271 261 260 261 257 261 262 257 256 256 257 257 259 255 251 249 245 243 246 257 253 238 233 236 234 240 248 245 243 250 268 281 290 299 305 320
91 62 41 35 25 3 21 68 57 64 31 20 79 59 40 31 11 29 64 75 57 44 35 18 25 83 84 63 55 63 33 11 350 344 336 337 344 347 351 354 354 354 352 348 347 345 341 338 336 334 331 328 325 323 321 319 314 307 300 297 294 282 264 255 255 254 257 260 260 260 261 260 257 257 253 251 250 247 246 244 247 250 242 232 232 233 239 246 246 242 246 259 264 273 284 293 310
93 73 44 65 41 28 60 72 64 73 40 40 61 50 40 28 10 24 45 49 50 37 31 25 7 52 99 101 75 61 47 24 0 343 337 343 349 352 358 358 355 357 355 353 352 347 343 340 336 334 331 329 325 322 319 318 315 310 303 297 293 288 272 260 255 254 255 257 258 260 266 267 261 256 254 253 251 247 246 243 239 244 246 238 230 229 235 243 244 240 244 253 253 259 270 280 295
77 22 349 70 56 49 67 70 66 70 61 57 58 48 37 28 18 35 45 32 39 31 23 13 357 1 96 89 85 62 39 14 355 342 342 350 354 358 2 357 356 358 357 358 356 351 349 345 340 335 331 329 324 321 318 317 316 312 306 299 294 289 281 268 260 257 255 254 255 256 260 269 267 258 253 252 250 246 243 242 237 238 244 244 235 230 233 237 240 240 242 247 250 254 261 268 280
26 333 124 89 81 82 75 81 74 65 69 63 57 47 34 28 26 38 49 43 35 30 24 359 0 18 61 80 89 69 25 354 344 345 351 358 358 1 1 356 358 358 359 360 356 355 354 350 345 338 332 329 325 321 316 314 313 312 309 302 296 291 286 276 267 261 257 255 253 254 253 255 263 262 254 248 247 244 242 240 237 236 239 242 238 234 234 233 236 238 240 243 247 252 257 262 271
285 304 160 109 100 95 80 83 79 79 75 65 57 40 27 25 35 41 44 49 39 33 20 358 27 18 359 81 93 61 15 339 341 350 358 1 359 360 358 359 1 359 1 359 356 357 356 353 350 344 337 330 327 322 316 312 309 308 308 304 297 292 288 282 276 268 262 257 253 254 253 251 251 256 255 248 245 242 240 238 234 234 236 239 237 236 234 235 237 235 237 242 245 250 253 258 267
286 323 122 100 86 84 84 93 89 98 86 77 58 34 24 25 36 42 41 42 39 42 22 15 42 358 348 74 88 57 359 337 346 357 0 360 359 359 359 2 2 2 1 357 356 358 357 355 352 349 344 336 330 324 318 312 307 303 302 302 299 293 288 285 281 275 269 261 256 254 254 254 252 251 249 244 243 242 239 237 235 232 232 235 235 237 237 236 238 235 234 237 242 249 251 255 264
28 42 63 69 69 81 96 102 101 103 81 71 53 28 22 35 34 28 46 42 27 41 28 18 8 332 346 57 87 42 341 344 355 358 359 359 360 0 1 3 3 2 359 356 355 357 359 357 355 354 352 346 338 331 325 318 309 304 299 298 297 294 289 285 283 280 275 267 260 256 256 256 252 250 246 240 240 240 239 237 236 234 231 231 234 236 239 236 235 236 235 234 239 246 250 253 259
44 42 69 77 79 99 104 109 122 110 71 55 54 33 29 42 34 11 33 54 32 28 29 12 354 331 357 19 77 358 342 352 358 355 359 360 359 360 1 3 2 359 357 356 355 357 360 359 358 358 356 354 348 341 334 326 317 310 303 298 295 294 291 286 283 281 278 273 266 259 256 254 250 247 243 241 241 238 238 237 235 235 231 228 231 233 237 237 235 239 240 238 238 242 248 254 260
46 57 80 94 84 98 113 132 128 102 75 66 50 38 50 41 30 19 16 52 49 18 8 8 1 340 353 1 9 351 347 352 355 357 0 0 358 359 2 1 360 358 357 356 356 360 0 0 1 0 0 359 357 352 346 341 333 323 312 303 296 293 293 291 285 280 278 276 271 264 259 254 247 243 239 236 240 241 238 237 235 234 232 227 229 229 233 233 232 238 242 242 239 243 250 255 262
67 76 86 98 93 90 77 104 103 89 84 74 51 34 71 51 27 37 15 34 66 29 27 11 8 20 3 358 345 344 341 344 352 358 360 360 359 360 2 0 358 358 360 358 359 2 2 3 4 3 2 1 3 1 356 354 349 338 324 312 302 296 294 293 290 283 279 276 271 267 262 257 248 242 238 234 238 242 240 239 234 231 229 227 226 225 230 231 229 235 240 241 239 246 253 254 259
72 80 93 87 82 71 24 42 87 89 81 82 90 302 101 77 37 50 36 51 70 39 56 27 22 55 34 3 343 334 336 346 352 352 357 359 358 359 1 360 356 358 1 1 3 4 4 6 5 3 1 0 3 1 358 357 356 350 340 329 316 306 299 294 292 288 282 276 272 267 263 259 252 245 240 236 235 237 240 240 233 230 229 230 230 227 229 229 229 235 236 235 234 241 250 250 251
63 73 75 78 66 57 19 16 52 106 107 98 89 336 42 85 51 59 29 53 76 51 54 45 52 59 37 15 348 333 345 357 349 346 356 358 356 357 360 359 355 358 1 3 6 5 6 8 6 3 0 0 360 358 357 356 357 356 351 346 336 323 311 301 295 292 288 281 273 268 264 260 256 249 241 234 230 231 236 237 231 230 232 235 236 230 231 231 229 234 235 236 236 238 244 240 240
54 75 66 77 61 53 37 27 61 108 105 90 67 13 33 60 25 358 320 54 88 63 52 47 56 43 27 10 342 341 357 360 343 344 355 358 358 359 360 359 357 359 0 3 6 5 6 8 6 3 2 1 359 359 359 358 357 356 352 348 343 334 323 312 303 296 292 287 278 269 265 260 256 251 244 234 227 227 231 235 232 229 230 235 236 230 232 234 227 231 235 239 242 240 240 237 238
47 69 72 68 65 63 58 49 57 83 99 97 77 37 52 45 360 351 344 52 59 46 37 27 25 13 7 354 342 353 2 354 343 345 354 358 1 1 360 359 359 359 1 4 4 5 7 5 3 3 4 2 1 1 2 2 358 354 352 348 344 340 329 320 312 303 295 290 285 275 266 262 258 253 249 240 229 226 229 234 232 229 229 230 232 228 230 230 224 229 234 238 243 243 237 234 239
42 62 83 73 95 78 62 61 53 58 85 96 82 54 66 45 6 2 344 355 50 50 28 12 6 355 352 347 350 1 357 348 347 348 354 359 1 0 0 0 360 360 2 3 3 5 6 3 1 2 5 3 2 2 3 4 359 356 355 350 346 343 335 326 318 310 303 294 288 280 269 262 260 256 252 245 232 226 229 234 232 230 230 228 227 225 225 223 220 226 231 234 242 245 235 230 237
48 54 93 102 103 87 59 64 55 45 54 81 85 71 71 39 21 17 354 331 57 44 23 9 356 344 343 347 357 358 348 345 349 352 356 1 1 0 1 0 360 359 2 3 2 5 5 1 358 2 5 3 3 3 3 4 1 1 360 354 349 345 340 333 324 316 309 300 289 281 273 263 259 259 254 245 234 227 227 231 231 230 228 225 222 221 221 219 221 226 229 231 237 244 239 236 241
67 57 81 90 95 92 67 68 64 47 47 72 66 52 56 32 39 25 17 35 45 18 8 359 346 341 341 347 355 348 342 344 345 349 356 1 0 360 1 1 1 360 1 3 4 5 3 359 356 1 3 2 4 3 3 2 1 3 1 357 353 348 344 338 330 322 315 305 293 281 274 266 259 259 257 246 235 227 227 229 231 232 228 222 217 218 219 219 223 225 228 233 237 242 244 246 244
91 66 70 78 84 85 79 76 67 44 39 52 47 54 29 19 59 36 35 47 23 1 352 350 349 348 347 346 346 342 343 345 342 344 352 358 358 359 360 0 2 0 2 5 5 4 2 358 357 0 1 0 3 3 3 0 1 3 0 359 357 351 347 341 333 327 320 309 298 287 277 269 260 256 257 249 236 228 227 226 228 232 226 219 217 217 219 221 223 226 228 234 241 242 242 248 244
93 87 76 78 81 81 79 76 68 47 54 58 55 79 27 20 44 34 51 44 3 351 347 359 355 350 352 347 344 344 347 346 343 346 350 351 355 358 357 360 2 1 4 6 5 4 2 358 357 1 0 359 2 2 1 360 3 3 359 359 0 356 350 343 335 329 324 313 302 295 283 274 265 256 255 251 238 231 230 227 226 228 218 212 215 218 220 223 226 229 230 234 240 239 241 244 239
75 95 94 89 85 86 85 79 75 63 74 65 36 77 43 33 19 25 54 29 352 354 356 357 346 347 354 349 347 346 348 347 344 349 349 346 352 356 354 358 1 2 6 8 6 5 2 358 359 2 0 359 2 1 360 2 3 2 359 0 2 359 352 347 340 331 326 316 305 300 291 282 273 261 256 254 243 235 235 235 233 229 217 209 214 221 224 226 228 230 231 235 237 239 243 234 220
85 103 102 101 96 96 96 86 80 77 83 11 338 89 66 4 320 41 65 20 352 352 347 336 337 350 354 349 349 345 346 346 344 348 349 347 352 354 353 355 359 2 5 8 8 5 1 360 3 5 0 360 1 359 1 3 2 2 2 1 2 1 354 349 344 334 328 319 311 307 301 291 281 269 258 256 250 240 239 245 243 230 218 213 219 225 226 227 229 231 232 233 236 240 238 221 207
111 110 106 106 107 107 104 98 97 103 92 353 343 92 81 329 276 73 58 12 352 352 337 326 340 347 348 348 348 348 347 344 339 341 349 354 354 353 352 352 356 360 2 6 7 4 2 2 6 4 359 359 360 360 1 3 4 4 4 2 3 1 354 350 345 336 331 323 317 315 311 301 289 277 265 262 259 249 242 249 251 230 218 220 227 231 228 228 229 232 233 227 229 231 228 220 210
121 116 109 108 112 106 99 109 120 167 119 12 353 44 92 280 280 70 25 352 341 334 312 315 342 338 344 347 349 354 351 347 339 330 343 355 356 354 352 350 352 356 359 4 5 4 3 4 5 2 358 358 360 1 2 4 5 5 4 3 3 1 355 351 346 341 334 326 325 321 316 311 300 296 282 283 275 263 253 251 249 229 221 225 226 225 224 225 224 226 229 223 223 223 221 216 210
129 123 112 121 118 92 64 92 121 271 88 34 330 348 222 232 146 109 352 352 334 313 300 315 340 337 344 344 351 356 349 350 345 331 338 352 355 355 351 348 350 352 357 2 3 4 3 3 4 1 359 359 1 2 4 7 5 4 5 3 2 1 359 355 349 345 336 326 327 320 315 317 315 27 150 119 350 257 243 236 234 219 215 220 220 222 221 223 224 224 228 224 220 221 219 210 203
155 141 126 154 134 73 34 51 107 211 44 63 247 2 144 160 140 144 349 19 345 319 314 331 338 341 345 346 352 354 349 351 352 345 341 347 353 355 350 346 348 350 355 0 2 2 0 2 3 1 1 1 2 3 5 8 7 7 4 0 2 4 4 2 354 347 336 326 324 314 316 336 177 136 142 134 126 161 181 195 204 197 196 205 215 224 221 223 227 226 228 225 216 217 216 208 202
183 97 143 201 127 69 41 26 10 175 83 108 164 352 131 136 149 166 7 31 340 322 313 323 336 340 340 347 351 353 353 349 350 351 341 341 350 354 350 346 348 351 356 360 1 360 358 359 2 3 4 4 3 3 6 10 11 10 4 1 6 8 10 10 5 355 343 333 330 331 16 60 157 149 140 140 137 136 144 164 181 188 196 204 213 222 221 221 227 229 228 224 215 212 214 209 204
184 103 356 330 56 113 97 36 26 24 305 230 207 316 101 127 148 169 285 348 296 305 299 312 332 337 339 345 349 351 352 346 339 342 337 338 349 354 350 346 347 351 356 360 0 358 356 358 2 5 6 5 4 4 8 12 12 11 8 7 9 10 12 15 17 12 1 349 340 12 75 97 116 114 104 108 120 126 146 168 178 191 206 211 215 222 226 227 238 245 232 223 220 214 211 208 204
189 79 41 347 23 110 154 59 30 6 315 236 202 283 334 125 141 167 206 306 283 294 296 316 329 332 336 336 346 350 348 344 331 333 337 337 343 351 351 346 345 350 355 359 0 358 357 360 3 4 6 6 5 7 10 12 11 11 12 11 12 14 14 16 25 28 22 16 14 53 83 91 94 91 89 100 110 113 124 130 137 161 185 202 208 217 228 231 245 255 240 225 227 220 212 208 204
1 25 79 350 25 48 148 106 22 1 334 261 202 246 295 131 137 169 192 236 275 289 295 317 326 324 329 331 344 348 347 345 330 332 340 338 337 345 351 348 343 347 355 360 2 360 358 1 2 2 5 6 7 8 10 11 11 12 13 13 15 17 16 17 25 30 32 36 46 62 80 92 93 95 99 102 103 104 106 106 107 110 112 127 163 193 213 225 237 250 243 223 216 214 210 210 207
347 8 22 354 51 65 56 124 11 3 347 327 264 253 280 161 152 175 186 208 257 286 295 310 306 303 314 324 336 343 347 343 333 336 339 336 334 339 349 352 344 343 353 1 3 1 359 359 1 2 3 5 8 8 9 11 11 12 14 15 18 19 17 18 24 28 33 40 47 54 66 79 85 89 94 94 92 92 94 97 98 96 94 94 100 124 154 186 213 230 233 218 203 200 199 202 202
337 342 329 348 330 41 76 99 27 12 339 300 274 275 301 292 254 186 176 192 246 273 278 291 289 285 299 315 331 342 344 337 334 341 337 332 332 336 345 351 348 345 350 356 358 0 360 358 360 2 3 3 7 8 9 10 10 12 15 16 19 21 18 20 27 31 34 43 51 54 61 71 77 81 86 87 85 86 91 96 97 92 90 91 92 98 107 120 139 167 188 188 175 164 165 178 185
314 310 303 315 317 331 108 104 44 16 336 266 251 288 287 282 273 210 169 195 249 260 267 300 305 309 316 318 333 340 339 336 336 341 336 331 331 336 344 348 348 347 347 350 355 359 359 357 358 1 4 3 5 8 9 9 10 11 13 16 21 24 22 23 29 32 34 42 52 58 65 71 74 75 78 80 84 91 95 99 98 94 93 95 103 106 107 114 117 123 130 131 134 128 126 137 149
313 306 305 275 249 306 113 105 45 22 3 269 274 305 280 283 280 216 166 197 246 253 284 311 311 320 318 320 335 331 331 336 336 336 338 335 332 338 345 346 347 346 344 348 355 358 357 356 356 358 3 5 5 7 7 8 10 12 12 15 20 25 26 27 30 32 34 39 46 52 59 67 71 72 73 73 76 84 90 94 94 96 100 100 106 111 113 117 120 125 130 132 137 134 134 141 147
309 296 305 311 339 324 17 95 33 1 357 290 322 321 285 281 272 203 168 205 234 213 245 274 292 302 308 318 326 321 326 335 333 334 339 340 337 339 343 346 348 344 343 347 354 357 355 355 355 356 0 3 6 6 7 7 8 12 14 14 19 23 27 31 32 33 36 39 44 47 51 56 62 67 71 72 72 75 79 83 86 95 106 113 115 117 119 121 122 124 128 137 143 151 161 161 164
339 2 349 332 5 359 289 58 352 314 282 286 305 297 282 276 254 188 181 206 200 204 245 267 279 286 304 316 317 320 333 336 331 331 337 342 342 340 342 347 348 343 345 350 354 356 355 355 355 355 357 360 3 3 5 7 6 10 13 15 19 21 24 29 32 33 36 39 43 46 49 51 54 58 63 68 72 75 78 79 77 80 96 114 125 132 135 132 130 125 127 140 126 144 180 175 175
31 34 41 329 343 345 267 304 318 303 269 279 296 292 284 245 203 192 187 185 200 227 230 256 270 267 294 314 313 326 337 335 331 332 336 341 342 342 343 344 343 341 345 350 354 355 356 356 355 355 355 357 0 0 1 4 5 8 10 14 20 21 21 22 26 29 31 36 39 43 47 50 52 55 58 63 70 77 84 89 86 81 81 100 128 145 152 153 154 149 149 159 136 107 197 213 204
17 2 4 324 314 297 288 306 318 327 307 290 355 10 305 232 194 209 157 154 227 214 198 226 259 244 276 309 319 332 337 332 333 336 335 335 338 344 347 342 338 338 341 347 351 353 355 357 356 356 355 355 358 359 359 360 2 4 6 10 15 18 19 18 22 25 26 30 34 38 43 48 51 55 57 61 66 71 78 86 93 96 97 100 112 129 144 151 150 140 137 136 114 115 168 232 225
289 245 278 321 302 279 285 308 339 7 286 281 55 80 288 297 248 209 145 169 254 206 186 203 201 208 264 303 319 327 330 326 334 341 336 327 330 342 348 344 336 331 335 340 345 348 353 356 356 357 356 354 354 357 358 358 359 1 3 7 9 12 15 17 20 21 23 26 28 31 36 41 47 52 56 58 60 64 67 70 77 86 94 103 110 116 125 131 123 119 130 129 122 149 154 208 225
265 225 272 306 277 264 286 315 267 236 290 325 23 72 203 289 286 150 101 264 278 252 164 171 164 195 253 289 312 322 323 320 331 341 339 326 323 333 344 347 339 326 326 331 337 343 348 352 355 356 356 354 352 353 356 356 356 357 359 2 4 7 9 13 17 17 18 20 22 24 27 31 37 43 49 54 56 59 62 64 67 71 77 86 94 103 111 119 128 135 155 175 179 176 167 165 197
244 207 271 290 286 292 314 328 267 271 21 353 328 24 111 275 290 44 60 306 286 22 98 130 155 194 236 280 301 315 317 317 324 334 338 328 320 325 337 346 344 333 323 322 328 335 341 346 351 354 355 355 353 351 352 353 353 354 354 356 358 1 3 6 10 13 13 15 17 19 22 25 29 32 36 41 46 50 55 60 62 65 70 75 79 85 88 90 100 111 128 164 173 171 171 166 172
336 17 271 249 298 304 297 301 279 295 47 234 287 341 11 290 281 247 220 265 303 31 72 109 135 191 256 277 294 310 314 315 318 326 331 329 322 322 329 338 343 341 332 322 321 325 332 338 343 349 353 355 354 352 349 349 349 350 351 352 352 354 357 358 1 5 8 9 11 13 16 20 22 25 28 29 32 35 42 50 55 60 64 68 71 74 79 83 85 89 98 120 144 154 160 160 158
335 7 275 226 239 238 205 241 268 333 2 231 269 327 11 313 273 203 161 199 55 29 19 47 43 7 342 334 326 320 316 312 314 319 323 327 327 324 326 331 336 339 336 329 323 319 323 329 334 341 346 351 353 352 350 348 346 346 347 348 348 349 351 353 355 357 359 2 4 6 7 10 13 16 20 22 24 25 25 27 34 46 51 56 63 65 69 73 76 81 84 95 118 142 155 161 167
331 268 252 283 265 274 134 227 121 58 337 241 218 314 56 203 265 125 124 118 82 64 26 18 6 355 348 339 325 316 315 312 313 318 319 323 328 327 326 329 331 332 333 333 329 323 320 321 326 331 336 342 346 349 350 348 346 343 342 342 343 344 345 347 349 350 352 354 356 358 358 359 2 4 7 9 11 14 14 11 10 13 17 23 27 33 44 50 60 76 83 92 110 129 145 161 177
324 258 310 8 15 14 24 340 22 63 267 221 193 274 231 216 237 130 126 116 94 89 62 13 340 329 321 317 318 319 321 322 321 319 317 320 324 326 325 327 330 329 329 329 329 328 323 320 319 322 327 332 336 342 346 347 346 342 339 338 337 337 338 339 340 342 344 345 347 349 350 350 353 355 357 357 358 358 359 358 355 352 349 347 347 345 344 342 338 332 322 147 162 169 179 192 201
346 3 10 25 33 25 360 332 345 333 265 216 181 223 281 264 262 124 119 114 115 123 112 330 312 308 307 313 322 326 329 329 323 314 312 316 320 323 323 323 325 326 327 326 325 326 326 324 321 319 321 324 326 332 337 341 344 341 338 335 332 330 330 330 331 331 333 334 335 337 339 341 343 347 348 347 347 347 346 346 344 341 339 333 328 322 316 308 301 292 282 269 256 248 242 237 235
321 313 89 66 65 64 352 335 314 289 294 292 207 154 224 253 271 117 115 124 145 161 224 271 293 292 298 308 313 320 323 320 316 313 313 316 318 321 323 324 323 323 324 324 324 323 322 324 323 320 320 319 319 322 326 332 337 337 335 332 328 324 320 321 321 322 323 322 322 321 322 326 328 332 336 336 337 338 337 336 335 333 331 327 322 316 309 301 293 286 279 270 262 254 249 247 248
286 293 67 69 182 191 228 244 224 264 324 311 271 212 203 215 262 127 120 144 191 211 249 258 278 286 289 295 300 307 311 312 314 314 316 318 318 318 322 327 327 324 323 322 322 321 319 320 320 320 320 317 315 315 316 321 326 330 331 327 325 320 314 311 309 311 314 314 315 314 311 311 310 312 315 318 322 325 326 326 325 324 321 319 317 313 309 303 297 290 282 274 268 261 256 254 252
305 358 43 194 186 129 116 345 8 74 24 291 278 298 302 338 330 213 141 216 220 207 238 264 278 284 288 294 301 308 309 310 312 313 317 319 320 319 320 326 330 329 326 322 321 319 316 316 316 315 317 316 314 311 311 313 315 319 323 322 320 317 312 308 302 299 300 302 306 308 307 305 302 301 300 301 303 304 307 309 309 311 311 309 308 306 303 300 297 293 288 284 278 273 269 265 261
25 17 198 178 66 80 110 351 344 4 319 286 309 320 300 291 310 307 209 235 224 198 206 262 279 286 302 310 313 313 309 307 309 315 321 323 323 323 321 321 325 329 329 326 323 319 314 312 311 310 311 312 312 309 308 309 308 310 314 315 314 312 310 307 302 297 292 291 292 294 297 298 298 297 295 294 293 292 292 292 293 294 295 295 294 293 291 289 288 286 285 282 279 277 274 271 268
51 94 173 122 66 33 331 333 324 347 318 290 304 317 293 227 230 276 228 219 210 187 196 234 272 294 311 310 309 310 310 308 312 320 327 329 330 329 324 319 318 322 326 326 326 322 317 314 310 308 307 308 307 306 306 307 305 305 307 309 309 307 306 304 302 298 293 289 287 284 283 284 287 290 291 291 290 289 288 286 285 284 283 283 283 283 281 280 280 278 277 277 275 274 272 270 268
27 56 27 39 114 162 258 267 202 207 292 298 316 324 298 238 211 214 202 193 178 173 205 241 278 295 300 301 304 309 310 311 316 323 328 332 334 333 330 323 318 319 321 323 323 321 319 316 312 310 309 307 304 303 303 303 303 302 301 304 305 303 303 302 300 297 294 293 290 285 281 280 280 280 282 285 286 286 286 284 283 281 280 279 278 278 277 276 276 275 273 273 271 270 270 269 268
15 29 24 5 24 118 248 311 86 125 197 302 315 298 276 250 219 196 131 144 155 164 219 266 285 295 299 302 304 306 308 310 316 322 324 327 330 332 331 327 323 320 320 320 320 319 320 318 315 313 311 310 308 304 301 299 299 299 297 299 301 300 300 300 300 297 295 295 292 288 286 282 279 278 278 279 279 280 281 281 281 280 279 278 277 276 275 275 276 275 275 274 272 270 269 269 268
74 62 62 33 10 35 9 337 346 51 166 223 289 290 277 263 238 196 107 123 166 209 243 270 289 299 302 306 307 307 309 309 312 317 319 320 323 327 330 330 328 324 320 318 318 319 321 321 319 317 315 314 313 308 303 299 297 296 295 296 297 297 297 298 298 298 297 298 295 291 289 285 281 281 279 278 276 275 276 277 277 278 278 277 276 275 274 273 273 273 273 274 273 273 271 270 269